Tracking 30995 objects as of 5-Jul-2025
HD Live streaming from Space Station
objects crossing your sky now

STARLINK-3192

Track STARLINK-3192 now!
10-day predictions
STARLINK-3192 is classified as:


NORAD ID: 49767
Int'l Code: 2021-115AV
Perigee: 546.1 km
Apogee: 547.7 km
Inclination: 53.2 °
Period: 95.4 minutes
Semi major axis: 6917 km
RCS: Unknown
Launch date: December 2, 2021
Source: United States (US)
Launch site: AIR FORCE EASTERN TEST RANGE (AFETR)
Your satellite tracking list
Your tracking list is empty




NASA's NSSDC Master Catalog

Two Line Element Set (TLE):
1 49767U 21115AV  25186.37242127 -.00000176  00000-0  70189-5 0  9998
2 49767  53.2156 169.3694 0001207  77.5542 282.5585 15.08834803199458
Source of the keplerian elements: AFSPC